This demonstration page uses our WeatherBlox Daily Observations layout. Learn more.

Left ArrowRight Arrow

39.01783, -85.05884

Hourly Observations for February 3, 2021

Temp ( °F °C ) Dew Point ( °F °C ) Humidity (%) Winds ( mph kmh ) Pressure ( in mb ) Visibility ( mi km ) Precip ( " mm )
12:52 am 00:52 Mostly Clear 26 -3.3 21 -6.1 81 81 WNW 12 19 30.10 1019 9 14 0.00 0.00
1:52 am 01:52 Clear 26 -3.3 21 -6.1 81 81 WNW 12 19 30.10 1019 9 14 0.00 0.00
2:52 am 02:52 Clear 25 -3.9 20 -6.7 81 81 NW 9 15 30.10 1019 8 13 0.00 0.00
3:52 am 03:52 Clear 23 -5 19 -7.2 85 85 NW 7 11 30.09 1019 7 11 0.00 0.00
4:52 am 04:52 Clear 21 -6.1 17 -8.3 85 85 W 7 11 30.10 1019 7 11 0.00 0.00
5:52 am 05:52 Clear 20 -6.7 17 -8.3 89 89 WNW 8 13 30.11 1020 7 11 0.00 0.00
6:52 am 06:52 Clear 23 -5 18 -7.8 81 81 NW 10 17 30.13 1020 10 16 0.00 0.00
7:52 am 07:52 Sunny 22 -5.6 18 -7.8 85 85 WNW 8 13 30.14 1021 8 13 0.00 0.00
8:52 am 08:52 Sunny 23 -5 19 -7.2 85 85 WNW 9 15 30.15 1021 9 14 0.00 0.00
9:52 am 09:52 Sunny 26 -3.3 19 -7.2 75 75 NW 12 19 30.16 1021 10 16 0.00 0.00
10:52 am 10:52 Mostly Sunny 29 -1.7 21 -6.1 72 72 NW 9 15 30.15 1021 10 16 0.00 0.00
11:52 am 11:52 Mostly Sunny 32 0 22 -5.6 66 66 NNW 12 19 30.14 1021 10 16 0.00 0.00
12:52 pm 12:52 Mostly Sunny 34 1.1 22 -5.6 61 61 NW 10 17 30.12 1020 10 16 0.00 0.00
1:52 pm 13:52 Mostly Sunny 35 1.7 24 -4.4 64 64 W 10 17 30.10 1019 10 16 0.00 0.00
2:52 pm 14:52 Mostly Sunny 35 1.7 24 -4.4 64 64 WNW 8 13 30.11 1020 10 16 0.00 0.00
3:52 pm 15:52 Mostly Sunny 36 2.2 21 -6.1 55 55 NNW 8 13 30.10 1019 10 16 0.00 0.00
4:52 pm 16:52 Mostly Sunny 35 1.7 21 -6.1 57 57 NW 6 9 30.09 1019 10 16 0.00 0.00
5:52 pm 17:52 Mostly Sunny 32 0 22 -5.6 66 66 W 7 11 30.11 1020 10 16 0.00 0.00
6:52 pm 18:52 Mostly Clear 30 -1.1 21 -6.1 69 69 Calm 30.10 1019 10 16 0.00 0.00
7:52 pm 19:52 Partly Cloudy 26 -3.3 20 -6.7 78 78 Calm 30.10 1019 10 16 0.00 0.00
8:52 pm 20:52 Mostly Cloudy 26 -3.3 20 -6.7 78 78 S 3 6 30.09 1019 10 16 0.00 0.00
9:52 pm 21:52 Partly Cloudy 25 -3.9 20 -6.7 81 81 Calm 30.10 1019 9 14 0.00 0.00
10:52 pm 22:52 Partly Cloudy 24 -4.4 20 -6.7 84 84 Calm 30.09 1019 10 16 0.00 0.00
11:52 pm 23:52 Clear 24 -4.4 19 -7.2 81 81 Calm 30.07 1018 10 16 0.00 0.00

Powered by AerisWeather